| time (UTC) | temp C | wind direction | speed KPH | gust KPH | rain 1hr cm | rain 24hr cm | rain mn cm | humidity % | barometer mb |
| 20260502221025 | 9 | 321 | 0.0 | 8.0 | 0.00 | 0.00 | 0.00 | 53 | 1015.7 |
| 20260502220503 | 10 | 8 | 0.0 | 8.0 | 0.00 | 0.00 | 0.00 | 50 | 1015.7 |
| 20260502220003 | 10 | 348 | 0.0 | 3.2 | 0.00 | 0.00 | 0.00 | 49 | 1015.6 |
| 20260502215503 | 10 | 347 | 0.0 | 3.2 | 0.00 | 0.00 | 0.00 | 48 | 1015.5 |
| 20260502215024 | 10 | 40 | 0.0 | 8.0 | 0.00 | 0.00 | 0.00 | 49 | 1015.5 |
| 20260502214525 | 10 | 241 | 0.0 | 8.0 | 0.00 | 0.00 | 0.00 | 49 | 1015.5 |
| 20260502214003 | 10 | 284 | 0.0 | 0.0 | 0.00 | 0.00 | 0.00 | 50 | 1015.4 |
| 20260502213503 | 10 | 342 | 0.0 | 16.1 | 0.00 | 0.00 | 0.00 | 51 | 1015.3 |
| 20260502213003 | 10 | 26 | 0.0 | 16.1 | 0.00 | 0.00 | 0.00 | 50 | 1015.3 |
| 20260502212504 | 10 | 42 | 0.0 | 1.6 | 0.00 | 0.00 | 0.00 | 51 | 1015.2 |
| 20260502212025 | 10 | 24 | 0.0 | 1.6 | 0.00 | 0.00 | 0.00 | 49 | 1015.2 |
| 20260502211503 | 10 | 37 | 0.0 | 1.6 | 0.00 | 0.00 | 0.00 | 50 | 1015.2 |
| 20260502211024 | 10 | 322 | 0.0 | 1.6 | 0.00 | 0.00 | 0.00 | 47 | 1015.0 |
| 20260502210502 | 11 | 40 | 0.0 | 0.0 | 0.00 | 0.00 | 0.00 | 48 | 1014.9 |
| 20260502210024 | 10 | 123 | 0.0 | 0.0 | 0.00 | 0.00 | 0.00 | 49 | 1014.9 |
| 20260502205503 | 10 | 325 | 0.0 | 0.0 | 0.00 | 0.00 | 0.00 | 52 | 1014.8 |
| 20260502205003 | 10 | 266 | 0.0 | 0.0 | 0.00 | 0.00 | 0.00 | 52 | 1014.9 |
| 20260502204502 | 10 | 313 | 0.0 | 4.8 | 0.00 | 0.00 | 0.00 | 49 | 1015.0 |
| 20260502204003 | 10 | 315 | 0.0 | 4.8 | 0.00 | 0.00 | 0.00 | 49 | 1014.9 |
| 20260502203503 | 10 | 355 | 0.0 | 1.6 | 0.00 | 0.00 | 0.00 | 48 | 1014.8 |
| 20260502203002 | 10 | 188 | 0.0 | 0.0 | 0.00 | 0.00 | 0.00 | 50 | 1014.8 |
| 20260502202503 | 10 | 331 | 0.0 | 19.3 | 0.00 | 0.00 | 0.00 | 48 | 1014.9 |
| 20260502202003 | 10 | 18 | 0.0 | 19.3 | 0.00 | 0.00 | 0.00 | 47 | 1015.0 |
| 20260502201503 | 11 | 38 | 0.0 | 3.2 | 0.00 | 0.00 | 0.00 | 49 | 1014.9 |
| 20260502201003 | 11 | 312 | 0.0 | 1.6 | 0.00 | 0.00 | 0.00 | 48 | 1014.9 |
| 20260502200503 | 11 | 333 | 0.0 | 1.6 | 0.00 | 0.00 | 0.00 | 47 | 1015.0 |
| 20260502200003 | 11 | 342 | 0.0 | 11.3 | 0.00 | 0.00 | 0.00 | 47 | 1014.9 |
| 20260502195503 | 11 | 333 | 0.0 | 16.1 | 0.00 | 0.00 | 0.00 | 48 | 1015.0 |
| 20260502195003 | 11 | 21 | 1.6 | 19.3 | 0.00 | 0.00 | 0.00 | 45 | 1015.0 |
| 20260502194503 | 11 | 332 | 1.6 | 19.3 | 0.00 | 0.00 | 0.00 | 45 | 1015.0 |
| 20260502194003 | 11 | 325 | 0.0 | 12.9 | 0.00 | 0.00 | 0.00 | 46 | 1015.0 |
| 20260502193503 | 11 | 331 | 0.0 | 12.9 | 0.00 | 0.00 | 0.00 | 44 | 1014.9 |
| 20260502193003 | 12 | 16 | 0.0 | 17.7 | 0.00 | 0.00 | 0.00 | 43 | 1014.7 |
| 20260502192525 | 12 | 44 | 0.0 | 17.7 | 0.00 | 0.00 | 0.00 | 44 | 1014.7 |
| 20260502192003 | 12 | 337 | 1.6 | 14.5 | 0.00 | 0.00 | 0.00 | 46 | 1014.8 |
| 20260502191503 | 13 | 334 | 0.0 | 20.9 | 0.00 | 0.00 | 0.00 | 43 | 1014.8 |
| 20260502191024 | 13 | 17 | 3.2 | 20.9 | 0.00 | 0.00 | 0.00 | 45 | 1014.7 |
| 20260502190503 | 12 | 45 | 0.0 | 14.5 | 0.00 | 0.00 | 0.00 | 45 | 1014.7 |
| 20260502190004 | 12 | 23 | 0.0 | 8.0 | 0.00 | 0.00 | 0.00 | 48 | 1014.7 |
| 20260502185503 | 12 | 28 | 0.0 | 6.4 | 0.00 | 0.00 | 0.00 | 46 | 1014.8 |
| 20260502185003 | 12 | 342 | 0.0 | 0.0 | 0.00 | 0.00 | 0.00 | 49 | 1014.8 |
| 20260502184503 | 11 | 19 | 0.0 | 1.6 | 0.00 | 0.00 | 0.00 | 50 | 1014.9 |
| 20260502184045 | 11 | 90 | 0.0 | 1.6 | 0.00 | 0.00 | 0.00 | 50 | 1015.0 |
| 20260502183502 | 11 | 30 | 0.0 | 0.0 | 0.00 | 0.00 | 0.00 | 49 | 1015.1 |
| 20260502183008 | 11 | 309 | 0.0 | 0.0 | 0.00 | 0.00 | 0.00 | 48 | 1015.1 |
| 20260502182502 | 11 | 29 | 0.0 | 12.9 | 0.00 | 0.00 | 0.00 | 49 | 1015.0 |
| 20260502182024 | 11 | 356 | 0.0 | 12.9 | 0.00 | 0.00 | 0.00 | 48 | 1015.1 |
| 20260502181503 | 11 | 17 | 0.0 | 4.8 | 0.00 | 0.00 | 0.00 | 48 | 1015.1 |
| 20260502181003 | 11 | 343 | 0.0 | 4.8 | 0.00 | 0.00 | 0.00 | 47 | 1015.3 |
| 20260502180503 | 11 | 37 | 0.0 | 4.8 | 0.00 | 0.00 | 0.00 | 48 | 1015.4 |
| 20260502170503 | 11 | 298 | 0.0 | 0.0 | 0.00 | 0.00 | 0.00 | 50 | 1016.1 |
| 20260502164003 | 10 | 19 | 0.0 | 14.5 | 0.00 | 0.00 | 0.00 | 52 | 1016.3 |
| 20260502163503 | 10 | 32 | 0.0 | 8.0 | 0.00 | 0.00 | 0.00 | 54 | 1016.3 |
| 20260502163003 | 10 | 101 | 0.0 | 8.0 | 0.00 | 0.00 | 0.00 | 54 | 1016.4 |
| 20260502162503 | 10 | 325 | 0.0 | 1.6 | 0.00 | 0.00 | 0.00 | 54 | 1016.5 |
| 20260502162003 | 10 | 342 | 0.0 | 1.6 | 0.00 | 0.00 | 0.00 | 51 | 1016.5 |
| 20260502161502 | 10 | 338 | 0.0 | 1.6 | 0.00 | 0.00 | 0.00 | 50 | 1016.6 |
| 20260502161003 | 10 | 36 | 0.0 | 11.3 | 0.00 | 0.00 | 0.00 | 52 | 1016.8 |
| 20260502160503 | 10 | 27 | 0.0 | 11.3 | 0.00 | 0.00 | 0.00 | 53 | 1016.8 |
| 20260502152007 | 8 | 5 | 0.0 | 6.4 | 0.00 | 0.00 | 0.00 | 59 | 1017.0 |
| 20260502151524 | 7 | 42 | 0.0 | 6.4 | 0.00 | 0.00 | 0.00 | 58 | 1016.9 |
| 20260502151003 | 7 | 341 | 0.0 | 3.2 | 0.00 | 0.00 | 0.00 | 59 | 1017.0 |
| 20260502150503 | 7 | 350 | 0.0 | 4.8 | 0.00 | 0.00 | 0.00 | 60 | 1017.1 |
| 20260502130503 | 5 | 312 | 0.0 | 1.6 | 0.00 | 0.00 | 0.00 | 67 | 1017.1 |
| 20260502123503 | 5 | 334 | 0.0 | 1.6 | 0.00 | 0.00 | 0.00 | 69 | 1016.7 |
| 20260502123003 | 5 | 334 | 0.0 | 0.0 | 0.00 | 0.00 | 0.00 | 69 | 1016.7 |
| 20260502122503 | 5 | 346 | 0.0 | 0.0 | 0.00 | 0.00 | 0.00 | 69 | 1016.7 |
| 20260502122003 | 5 | 32 | 0.0 | 0.0 | 0.00 | 0.00 | 0.00 | 69 | 1016.7 |
| 20260502121503 | 5 | 339 | 0.0 | 1.6 | 0.00 | 0.00 | 0.00 | 68 | 1016.7 |
| 20260502121004 | 5 | 354 | 0.0 | 1.6 | 0.00 | 0.00 | 0.00 | 68 | 1016.9 |
| 20260502120503 | 5 | 30 | 0.0 | 0.0 | 0.00 | 0.00 | 0.00 | 67 | 1016.9 |
| 20260502115503 | 5 | 345 | 0.0 | 0.0 | 0.00 | 0.00 | 0.00 | 67 | 1016.9 |
| 20260502115003 | 5 | 306 | 0.0 | 0.0 | 0.00 | 0.00 | 0.00 | 68 | 1016.9 |
| 20260502114503 | 5 | 345 | 0.0 | 0.0 | 0.00 | 0.00 | 0.00 | 69 | 1016.9 |
| 20260502114025 | 5 | 342 | 0.0 | 0.0 | 0.00 | 0.00 | 0.00 | 69 | 1016.7 |
| 20260502113503 | 4 | 342 | 0.0 | 0.0 | 0.00 | 0.00 | 0.00 | 68 | 1016.6 |
| 20260502113003 | 4 | 342 | 0.0 | 0.0 | 0.00 | 0.00 | 0.00 | 67 | 1016.6 |
| 20260502112502 | 4 | 306 | 0.0 | 0.0 | 0.00 | 0.00 | 0.00 | 68 | 1016.5 |
| 20260502112004 | 4 | 306 | 0.0 | 0.0 | 0.00 | 0.00 | 0.00 | 68 | 1016.4 |
| 20260502111503 | 4 | 306 | 0.0 | 0.0 | 0.00 | 0.00 | 0.00 | 68 | 1016.4 |
| 20260502111026 | 4 | 306 | 0.0 | 0.0 | 0.00 | 0.00 | 0.00 | 68 | 1016.4 |
| 20260502110503 | 4 | 306 | 0.0 | 0.0 | 0.00 | 0.00 | 0.00 | 68 | 1016.5 |
| 20260502110004 | 4 | 306 | 0.0 | 0.0 | 0.00 | 0.00 | 0.00 | 66 | 1016.3 |
| 20260502105502 | 4 | 306 | 0.0 | 0.0 | 0.00 | 0.00 | 0.00 | 67 | 1016.3 |
| 20260502105003 | 4 | 306 | 0.0 | 0.0 | 0.00 | 0.00 | 0.00 | 67 | 1016.3 |
| 20260502104502 | 4 | 306 | 0.0 | 1.6 | 0.00 | 0.00 | 0.00 | 67 | 1016.3 |
| 20260502104003 | 4 | 297 | 0.0 | 1.6 | 0.00 | 0.00 | 0.00 | 68 | 1016.3 |
| 20260502103503 | 4 | 5 | 0.0 | 0.0 | 0.00 | 0.00 | 0.00 | 66 | 1016.4 |
| 20260502103003 | 4 | 316 | 0.0 | 0.0 | 0.00 | 0.00 | 0.00 | 66 | 1016.3 |
| 20260502102503 | 4 | 55 | 0.0 | 0.0 | 0.00 | 0.00 | 0.00 | 67 | 1016.4 |
| 20260502102003 | 4 | 55 | 0.0 | 0.0 | 0.00 | 0.00 | 0.00 | 66 | 1016.5 |
| 20260502101505 | 5 | 55 | 0.0 | 0.0 | 0.00 | 0.00 | 0.00 | 67 | 1016.4 |
| 20260502101003 | 5 | 55 | 0.0 | 0.0 | 0.00 | 0.00 | 0.00 | 67 | 1016.5 |
| 20260502100525 | 5 | 56 | 0.0 | 0.0 | 0.00 | 0.00 | 0.00 | 67 | 1016.7 |
| 20260502091503 | 5 | 350 | 0.0 | 4.8 | 0.00 | 0.00 | 0.00 | 69 | 1016.8 |
| 20260502091003 | 5 | 13 | 0.0 | 0.0 | 0.00 | 0.00 | 0.00 | 70 | 1016.7 |
| 20260502090503 | 5 | 329 | 0.0 | 0.0 | 0.00 | 0.00 | 0.00 | 70 | 1016.6 |
| 20260502071503 | 6 | 5 | 0.0 | 0.0 | 0.00 | 0.00 | 0.00 | 78 | 1015.9 |
| 20260502071003 | 6 | 355 | 0.0 | 0.0 | 0.00 | 0.00 | 0.00 | 78 | 1015.9 |
| 20260502070524 | 6 | 36 | 0.0 | 0.0 | 0.00 | 0.00 | 0.00 | 78 | 1016.0 |
| 20260502070003 | 6 | 360 | 0.0 | 0.0 | 0.00 | 0.00 | 0.00 | 78 | 1016.1 |
| 20260502065503 | 6 | 310 | 0.0 | 0.0 | 0.00 | 0.00 | 0.00 | 78 | 1016.2 |
| 20260502065002 | 6 | 31 | 0.0 | 0.0 | 0.00 | 0.00 | 0.00 | 77 | 1016.2 |
| 20260502064503 | 6 | 311 | 0.0 | 0.0 | 0.00 | 0.00 | 0.00 | 77 | 1016.2 |
| 20260502064003 | 6 | 311 | 0.0 | 0.0 | 0.00 | 0.00 | 0.00 | 77 | 1016.4 |
| 20260502063502 | 6 | 310 | 0.0 | 0.0 | 0.00 | 0.00 | 0.00 | 77 | 1016.4 |
| 20260502063024 | 6 | 309 | 0.0 | 0.0 | 0.00 | 0.00 | 0.00 | 77 | 1016.5 |
| 20260502062503 | 6 | 329 | 0.0 | 0.0 | 0.00 | 0.00 | 0.00 | 77 | 1016.5 |
| 20260502062004 | 6 | 323 | 0.0 | 0.0 | 0.00 | 0.00 | 0.00 | 76 | 1016.5 |
| 20260502061003 | 6 | 360 | 0.0 | 0.0 | 0.00 | 0.00 | 0.00 | 76 | 1016.6 |
| 20260502060503 | 6 | 335 | 0.0 | 0.0 | 0.00 | 0.00 | 0.00 | 76 | 1016.6 |
| 20260502060003 | 6 | 5 | 0.0 | 0.0 | 0.00 | 0.00 | 0.00 | 76 | 1016.7 |
| 20260502055524 | 7 | 5 | 0.0 | 0.0 | 0.00 | 0.00 | 0.00 | 76 | 1016.6 |
| 20260502055024 | 7 | 311 | 0.0 | 0.0 | 0.00 | 0.00 | 0.00 | 76 | 1016.6 |
| 20260502054502 | 7 | 321 | 0.0 | 0.0 | 0.00 | 0.00 | 0.00 | 76 | 1016.6 |
| 20260502054003 | 7 | 321 | 0.0 | 0.0 | 0.00 | 0.00 | 0.00 | 75 | 1016.8 |
| 20260502053503 | 7 | 321 | 0.0 | 0.0 | 0.00 | 0.00 | 0.00 | 75 | 1016.7 |
| 20260502053002 | 7 | 321 | 0.0 | 0.0 | 0.00 | 0.00 | 0.00 | 74 | 1016.6 |
| 20260502052503 | 7 | 321 | 0.0 | 0.0 | 0.00 | 0.00 | 0.00 | 74 | 1016.6 |
| 20260502052003 | 7 | 334 | 0.0 | 0.0 | 0.00 | 0.00 | 0.00 | 74 | 1016.6 |
| 20260502051502 | 7 | 327 | 0.0 | 0.0 | 0.00 | 0.00 | 0.00 | 75 | 1016.6 |
| 20260502051003 | 7 | 24 | 0.0 | 0.0 | 0.00 | 0.00 | 0.00 | 74 | 1016.5 |
| 20260502050503 | 7 | 335 | 0.0 | 0.0 | 0.00 | 0.00 | 0.00 | 74 | 1016.5 |
| 20260502050003 | 7 | 348 | 0.0 | 0.0 | 0.00 | 0.00 | 0.00 | 74 | 1016.5 |
| 20260502045503 | 7 | 355 | 0.0 | 0.0 | 0.00 | 0.00 | 0.00 | 74 | 1016.4 |
| 20260502045003 | 7 | 333 | 0.0 | 8.0 | 0.00 | 0.00 | 0.00 | 74 | 1016.6 |
| 20260502044503 | 7 | 309 | 0.0 | 8.0 | 0.00 | 0.00 | 0.00 | 74 | 1016.6 |
| 20260502044002 | 8 | 303 | 0.0 | 1.6 | 0.00 | 0.00 | 0.00 | 74 | 1016.5 |
| 20260502043503 | 8 | 309 | 0.0 | 1.6 | 0.00 | 0.00 | 0.00 | 74 | 1016.6 |
| 20260502043003 | 8 | 309 | 0.0 | 1.6 | 0.00 | 0.00 | 0.00 | 75 | 1016.6 |
| 20260502042503 | 8 | 46 | 0.0 | 1.6 | 0.00 | 0.00 | 0.00 | 75 | 1016.6 |
| 20260502042046 | 8 | 288 | 0.0 | 1.6 | 0.00 | 0.00 | 0.00 | 75 | 1016.5 |
| 20260502041502 | 8 | 271 | 0.0 | 1.6 | 0.00 | 0.00 | 0.00 | 76 | 1016.5 |
| 20260502041003 | 8 | 273 | 0.0 | 0.0 | 0.00 | 0.00 | 0.00 | 76 | 1016.4 |
| 20260502040503 | 8 | 349 | 0.0 | 0.0 | 0.00 | 0.00 | 0.00 | 76 | 1016.3 |
| 20260502040003 | 8 | 347 | 0.0 | 0.0 | 0.00 | 0.00 | 0.00 | 76 | 1016.4 |
| 20260502035524 | 8 | 347 | 0.0 | 0.0 | 0.00 | 0.00 | 0.00 | 76 | 1016.4 |
| 20260502035003 | 8 | 347 | 0.0 | 0.0 | 0.00 | 0.00 | 0.00 | 76 | 1016.3 |
| 20260502034503 | 8 | 347 | 0.0 | 0.0 | 0.00 | 0.00 | 0.00 | 76 | 1016.4 |
| 20260502034003 | 8 | 347 | 0.0 | 0.0 | 0.00 | 0.00 | 0.00 | 76 | 1016.4 |
| 20260502033503 | 8 | 348 | 0.0 | 0.0 | 0.00 | 0.00 | 0.00 | 75 | 1016.4 |
| 20260502033003 | 8 | 348 | 0.0 | 0.0 | 0.00 | 0.00 | 0.00 | 75 | 1016.5 |
| 20260502032525 | 8 | 348 | 0.0 | 0.0 | 0.00 | 0.00 | 0.00 | 75 | 1016.4 |
| 20260502032003 | 8 | 348 | 0.0 | 0.0 | 0.00 | 0.00 | 0.00 | 74 | 1016.5 |
| 20260502031505 | 8 | 328 | 0.0 | 0.0 | 0.00 | 0.00 | 0.00 | 74 | 1016.4 |
| 20260502031003 | 9 | 325 | 0.0 | 0.0 | 0.00 | 0.00 | 0.00 | 74 | 1016.4 |
| 20260502030503 | 9 | 333 | 0.0 | 0.0 | 0.00 | 0.00 | 0.00 | 73 | 1016.3 |
| 20260502030024 | 9 | 320 | 0.0 | 0.0 | 0.00 | 0.00 | 0.00 | 73 | 1016.2 |
| 20260502025503 | 9 | 300 | 0.0 | 0.0 | 0.00 | 0.00 | 0.00 | 72 | 1016.2 |
| 20260502025003 | 9 | 340 | 0.0 | 0.0 | 0.00 | 0.00 | 0.00 | 72 | 1016.3 |
| 20260502024503 | 10 | 325 | 0.0 | 0.0 | 0.00 | 0.00 | 0.00 | 71 | 1016.4 |
| 20260502024003 | 10 | 325 | 0.0 | 0.0 | 0.00 | 0.00 | 0.00 | 71 | 1016.4 |
| 20260502023503 | 10 | 343 | 0.0 | 0.0 | 0.00 | 0.00 | 0.00 | 70 | 1016.4 |
| 20260502023003 | 10 | 315 | 0.0 | 1.6 | 0.00 | 0.00 | 0.00 | 69 | 1016.3 |
| 20260502022503 | 10 | 59 | 0.0 | 1.6 | 0.00 | 0.00 | 0.00 | 68 | 1016.2 |
| 20260502022023 | 11 | 321 | 0.0 | 0.0 | 0.00 | 0.00 | 0.00 | 66 | 1016.1 |
| 20260502021503 | 11 | 339 | 0.0 | 0.0 | 0.00 | 0.00 | 0.00 | 65 | 1015.9 |
| 20260502021003 | 11 | 336 | 0.0 | 0.0 | 0.00 | 0.00 | 0.00 | 64 | 1015.7 |
| 20260502020503 | 11 | 5 | 0.0 | 0.0 | 0.00 | 0.00 | 0.00 | 65 | 1015.5 |
| 20260502020024 | 11 | 331 | 0.0 | 1.6 | 0.00 | 0.00 | 0.00 | 64 | 1015.2 |
| 20260502015503 | 11 | 338 | 0.0 | 1.6 | 0.00 | 0.00 | 0.00 | 66 | 1014.9 |
| 20260502015003 | 12 | 345 | 0.0 | 0.0 | 0.00 | 0.00 | 0.00 | 68 | 1014.7 |
| 20260502014503 | 12 | 327 | 0.0 | 0.0 | 0.00 | 0.00 | 0.00 | 68 | 1014.3 |
| 20260502014003 | 12 | 19 | 0.0 | 0.0 | 0.00 | 0.00 | 0.00 | 66 | 1014.3 |
| 20260502013503 | 12 | 235 | 0.0 | 0.0 | 0.00 | 0.00 | 0.00 | 65 | 1014.4 |
| 20260502013024 | 12 | 338 | 0.0 | 0.0 | 0.00 | 0.00 | 0.00 | 66 | 1014.4 |
| 20260502012503 | 12 | 300 | 0.0 | 3.2 | 0.00 | 0.00 | 0.00 | 65 | 1014.3 |
| 20260502012002 | 12 | 207 | 0.0 | 3.2 | 0.00 | 0.00 | 0.00 | 65 | 1014.4 |
| 20260502011524 | 12 | 264 | 0.0 | 1.6 | 0.00 | 0.00 | 0.00 | 65 | 1014.4 |
| 20260502011046 | 12 | 9 | 0.0 | 1.6 | 0.00 | 0.00 | 0.00 | 65 | 1014.3 |
| 20260502010503 | 12 | 228 | 0.0 | 1.6 | 0.00 | 0.00 | 0.00 | 65 | 1014.3 |
| 20260502010003 | 12 | 44 | 0.0 | 0.0 | 0.00 | 0.00 | 0.00 | 65 | 1014.2 |
| 20260502005503 | 12 | 45 | 0.0 | 1.6 | 0.00 | 0.00 | 0.00 | 64 | 1014.2 |
| 20260502005024 | 12 | 306 | 0.0 | 1.6 | 0.00 | 0.00 | 0.00 | 63 | 1014.1 |
| 20260502004503 | 12 | 355 | 0.0 | 1.6 | 0.00 | 0.00 | 0.00 | 63 | 1014.0 |
| 20260502004003 | 12 | 193 | 0.0 | 1.6 | 0.00 | 0.00 | 0.00 | 63 | 1013.8 |
| 20260502003503 | 12 | 178 | 0.0 | 1.6 | 0.00 | 0.00 | 0.00 | 63 | 1013.7 |
| 20260502003003 | 12 | 257 | 0.0 | 0.0 | 0.00 | 0.00 | 0.00 | 62 | 1013.6 |
| 20260502002524 | 12 | 318 | 0.0 | 6.4 | 0.00 | 0.00 | 0.00 | 62 | 1013.6 |
| 20260502002003 | 12 | 199 | 0.0 | 6.4 | 0.00 | 0.00 | 0.00 | 62 | 1013.6 |
| 20260502001503 | 12 | 202 | 0.0 | 4.8 | 0.00 | 0.00 | 0.00 | 61 | 1013.4 |
| 20260502001002 | 12 | 59 | 0.0 | 3.2 | 0.00 | 0.00 | 0.00 | 61 | 1013.3 |
| 20260502000524 | 12 | 159 | 0.0 | 3.2 | 0.00 | 0.00 | 0.00 | 61 | 1013.2 |
| 20260502000003 | 12 | 164 | 0.0 | 6.4 | 0.00 | 0.00 | 0.00 | 60 | 1013.2 |
| 20260501235503 | 13 | 18 | 0.0 | 6.4 | 0.00 | 0.00 | 0.00 | 60 | 1013.2 |
| 20260501235003 | 13 | 84 | 0.0 | 3.2 | 0.00 | 0.00 | 0.00 | 60 | 1013.1 |
| 20260501234503 | 13 | 98 | 0.0 | 3.2 | 0.00 | 0.00 | 0.00 | 59 | 1013.0 |
| 20260501234045 | 13 | 202 | 0.0 | 6.4 | 0.00 | 0.00 | 0.00 | 58 | 1013.0 |
| 20260501233503 | 13 | 134 | 0.0 | 6.4 | 0.00 | 0.00 | 0.00 | 58 | 1013.0 |
| 20260501233024 | 13 | 90 | 0.0 | 4.8 | 0.00 | 0.00 | 0.00 | 58 | 1012.9 |
| 20260501232503 | 13 | 67 | 0.0 | 4.8 | 0.00 | 0.00 | 0.00 | 58 | 1012.9 |
| 20260501232003 | 13 | 5 | 0.0 | 8.0 | 0.00 | 0.00 | 0.00 | 58 | 1012.8 |
| 20260501231503 | 13 | 71 | 0.0 | 11.3 | 0.00 | 0.00 | 0.00 | 57 | 1012.8 |
| 20260501231024 | 13 | 171 | 1.6 | 11.3 | 0.00 | 0.00 | 0.00 | 57 | 1012.8 |
| 20260501230503 | 13 | 123 | 0.0 | 11.3 | 0.00 | 0.00 | 0.00 | 56 | 1013.0 |
| 20260501230003 | 13 | 219 | 0.0 | 6.4 | 0.00 | 0.00 | 0.00 | 56 | 1012.9 |
| 20260501225503 | 13 | 98 | 0.0 | 6.4 | 0.00 | 0.00 | 0.00 | 56 | 1012.9 |
| 20260501225002 | 13 | 287 | 0.0 | 1.6 | 0.00 | 0.00 | 0.00 | 55 | 1013.0 |
| 20260501224503 | 13 | 179 | 0.0 | 1.6 | 0.00 | 0.00 | 0.00 | 56 | 1012.9 |
| 20260501224024 | 13 | 310 | 0.0 | 1.6 | 0.00 | 0.00 | 0.00 | 56 | 1013.0 |
| 20260501223503 | 14 | 111 | 0.0 | 1.6 | 0.00 | 0.00 | 0.00 | 55 | 1013.0 |
| 20260501223002 | 14 | 277 | 0.0 | 1.6 | 0.00 | 0.00 | 0.00 | 54 | 1012.8 |
| 20260501222524 | 14 | 115 | 0.0 | 0.0 | 0.00 | 0.00 | 0.00 | 53 | 1013.1 |
| 20260501222003 | 14 | 152 | 0.0 | 0.0 | 0.00 | 0.00 | 0.00 | 53 | 1013.0 |
| 20260501221503 | 14 | 111 | 0.0 | 3.2 | 0.00 | 0.00 | 0.00 | 53 | 1013.0 |